Weather History for KBTA - September, 2013

Change the Weather History Date:

Wednesday, September 18, 2013

  Actual Average (KOMA) Record (KOMA)
Temperature  
Mean Temperature 78 °F 65 °F  
Max Temperature 89 °F 77 °F 101 °F (1895)
Min Temperature 66 °F 53 °F 32 °F (1901)
Degree Days  
Heating Degree Days 0 3  
Month to date heating degree days 32  
Since 1 July heating degree days 40  
Cooling Degree Days 12 3  
Month to date cooling degree days 91  
Year to date cooling degree days 1071  
Growing Degree Days 28 (Base 50)    
Moisture  
Dew Point 66 °F    
Average Humidity 70    
Maximum Humidity 92    
Minimum Humidity 46    
Precipitation  
Precipitation 0.00 in 0.08 in 3.49 in (1919)
Month to date precipitation 1.70  
Year to date precipitation 24.81  
Snow  
Snow 0.00 in 0.00 in - ()
Month to date snowfall 0.0  
Since 1 July snowfall 0.0  
Snow Depth -    
Sea Level Pressure  
Sea Level Pressure 29.78 in    
Wind  
Wind Speed 15 mph (South)    
Max Wind Speed 23 mph    
Max Gust Speed 31 mph    
Visibility 9 miles    
Events      
T = Trace of Precipitation, MM = Missing Value Source: NWS Daily Summary

Daily Weather History Graph

Daily Weather History Graph

Search for Another Location

Airport or City:

Trip Planner

Search our weather history database for the weather conditions in past years. The results will help you decide how hot, cold, wet, or windy it might be!

Date:

Astronomy

Sep. 18, 2013 Rise Set
Actual Time 7:08 AM CDT 7:28 PM CDT
Civil Twilight 6:40 AM CDT 7:55 PM CDT
Nautical Twilight 6:07 AM CDT 8:28 PM CDT
Astronomical Twilight 5:34 AM CDT 9:01 PM CDT
Moon 6:51 PM CDT (9/18) 6:11 AM CDT (9/18)
Length of Visible Light 13h 15m
Length of Day
12h 19m
Waxing Gibbous, 99% of the Moon is Illuminated
Sep 18
Waxing Gibbous
Sep 19
Full
Sep 26
Last Quarter
Oct 4
New
Oct 11
First Quarter

Hourly Weather History & Observations

Time (CDT) Temp. Heat Index Dew Point Humidity Pressure Visibility Wind Dir Wind Speed Gust Speed Precip Events Conditions
12:15 AM 68.9 °F - 65.5 °F 89% 29.89 in 7.0 mi SSE 15.0 mph 21.9 mph N/A   Overcast
12:35 AM 68.9 °F - 65.5 °F 89% 29.89 in 7.0 mi SSE 15.0 mph 21.9 mph N/A   Overcast
12:55 AM 68.9 °F - 65.7 °F 89% 29.89 in 7.0 mi SSE 18.4 mph 24.2 mph N/A   Overcast
1:15 AM 68.9 °F - 65.5 °F 89% 29.88 in 7.0 mi SSE 16.1 mph 20.7 mph N/A   Overcast
1:35 AM 68.7 °F - 65.5 °F 89% 29.88 in 7.0 mi SSE 12.7 mph 19.6 mph N/A   Overcast
1:55 AM 68.9 °F - 65.5 °F 89% 29.88 in 7.0 mi SSE 17.3 mph - N/A   Mostly Cloudy
2:15 AM 68.9 °F - 65.3 °F 88% 29.88 in 7.0 mi South 15.0 mph 26.5 mph N/A   Mostly Cloudy
2:35 AM 68.9 °F - 65.3 °F 88% 29.87 in 10.0 mi SSE 16.1 mph 23.0 mph N/A   Scattered Clouds
2:55 AM 68.5 °F - 65.3 °F 89% 29.86 in 7.0 mi South 16.1 mph 20.7 mph N/A   Scattered Clouds
3:15 AM 68.4 °F - 65.3 °F 90% 29.85 in 7.0 mi South 16.1 mph 21.9 mph N/A   Scattered Clouds
3:35 AM 68.0 °F - 64.9 °F 90% 29.84 in 7.0 mi South 15.0 mph - N/A   Scattered Clouds
3:55 AM 68.0 °F - 64.9 °F 90% 29.83 in 7.0 mi South 16.1 mph 21.9 mph N/A   Mostly Cloudy
4:15 AM 67.5 °F - 64.8 °F 91% 29.83 in 7.0 mi South 13.8 mph - N/A   Scattered Clouds
4:35 AM 67.3 °F - 64.8 °F 92% 29.83 in 7.0 mi South 12.7 mph - N/A   Clear
4:55 AM 67.3 °F - 64.6 °F 91% 29.82 in 7.0 mi South 12.7 mph - N/A   Clear
5:15 AM 67.1 °F - 64.6 °F 92% 29.82 in 7.0 mi South 11.5 mph 18.4 mph N/A   Clear
5:35 AM 67.1 °F - 64.4 °F 91% 29.82 in 7.0 mi SSE 10.4 mph - N/A   Clear
5:55 AM 66.7 °F - 64.4 °F 92% 29.82 in 7.0 mi SSE 11.5 mph - N/A   Clear
6:15 AM 66.7 °F - 64.4 °F 92% 29.82 in 7.0 mi SSE 11.5 mph 17.3 mph N/A   Clear
6:35 AM 66.7 °F - 64.4 °F 92% 29.82 in 7.0 mi SSE 11.5 mph - N/A   Clear
6:55 AM 66.7 °F - 64.4 °F 92% 29.82 in 7.0 mi SSE 11.5 mph - N/A   Clear
7:15 AM 66.7 °F - 64.4 °F 92% 29.83 in 5.0 mi SSE 11.5 mph - N/A   Clear
7:35 AM 66.7 °F - 64.4 °F 92% 29.83 in 5.0 mi South 11.5 mph - N/A   Clear
7:55 AM 67.1 °F - 64.6 °F 92% 29.82 in 7.0 mi SSE 11.5 mph - N/A   Clear
8:15 AM 67.8 °F - 64.8 °F 90% 29.83 in 7.0 mi SSE 10.4 mph 17.3 mph N/A   Clear
8:35 AM 68.9 °F - 65.3 °F 88% 29.82 in 7.0 mi South 13.8 mph 19.6 mph N/A   Clear
8:55 AM 70.3 °F - 65.8 °F 86% 29.82 in 10.0 mi South 13.8 mph - N/A   Clear
9:15 AM 71.6 °F - 66.2 °F 83% 29.83 in 10.0 mi South 15.0 mph - N/A   Clear
9:35 AM 73.0 °F - 66.4 °F 80% 29.82 in 10.0 mi South 17.3 mph 21.9 mph N/A   Clear
9:55 AM 74.3 °F - 66.7 °F 77% 29.82 in 10.0 mi South 17.3 mph - N/A   Clear
10:15 AM 75.7 °F - 67.1 °F 74% 29.81 in 10.0 mi South 16.1 mph 24.2 mph N/A   Clear
10:35 AM 77.0 °F - 67.1 °F 71% 29.81 in 10.0 mi South 19.6 mph 24.2 mph N/A   Clear
10:55 AM 77.7 °F - 67.3 °F 70% 29.81 in 10.0 mi South 17.3 mph 24.2 mph N/A   Clear
11:15 AM 79.0 °F - 67.8 °F 69% 29.81 in 10.0 mi South 18.4 mph 26.5 mph N/A   Clear
11:35 AM 80.4 °F 83.1 °F 68.2 °F 66% 29.80 in 10.0 mi South 19.6 mph 25.3 mph N/A   Clear
11:55 AM 81.1 °F 84.0 °F 68.2 °F 65% 29.79 in 10.0 mi South 16.1 mph 20.7 mph N/A   Clear
12:15 PM 82.4 °F 85.4 °F 68.4 °F 62% 29.78 in 10.0 mi South 19.6 mph 25.3 mph N/A   Clear
12:35 PM 83.5 °F 86.9 °F 68.5 °F 61% 29.78 in 10.0 mi South 16.1 mph 24.2 mph N/A   Clear
12:55 PM 84.2 °F 87.6 °F 68.4 °F 59% 29.77 in 10.0 mi South 15.0 mph 25.3 mph N/A   Clear
1:15 PM 85.1 °F 88.2 °F 68.0 °F 56% 29.76 in 10.0 mi South 19.6 mph 24.2 mph N/A   Clear
1:35 PM 86.0 °F 89.4 °F 68.4 °F 55% 29.75 in 10.0 mi South 16.1 mph 25.3 mph N/A   Clear
1:55 PM 86.5 °F 89.3 °F 66.9 °F 52% 29.74 in 10.0 mi South 23.0 mph 28.8 mph N/A   Clear
2:15 PM 87.6 °F 90.4 °F 67.1 °F 50% 29.73 in 10.0 mi South 17.3 mph 26.5 mph N/A   Clear
2:35 PM 88.2 °F 90.9 °F 66.6 °F 49% 29.72 in 10.0 mi South 21.9 mph 31.1 mph N/A   Clear
2:55 PM 89.1 °F 92.1 °F 66.9 °F 48% 29.72 in 10.0 mi South 20.7 mph 28.8 mph N/A   Clear
3:15 PM 89.6 °F 92.2 °F 66.2 °F 46% 29.71 in 10.0 mi South 23.0 mph 28.8 mph N/A   Scattered Clouds
3:35 PM 88.7 °F 91.1 °F 65.8 °F 47% 29.71 in 10.0 mi South 23.0 mph 28.8 mph N/A   Scattered Clouds
3:55 PM 88.2 °F 90.6 °F 66.0 °F 48% 29.71 in 10.0 mi South 20.7 mph 31.1 mph N/A   Scattered Clouds
4:15 PM 88.5 °F 90.8 °F 65.8 °F 47% 29.71 in 10.0 mi South 21.9 mph 31.1 mph N/A   Overcast
4:35 PM 88.0 °F 90.3 °F 66.2 °F 48% 29.71 in 10.0 mi South 18.4 mph 28.8 mph N/A   Mostly Cloudy
4:55 PM 88.0 °F 90.3 °F 65.8 °F 48% 29.70 in 10.0 mi South 20.7 mph 26.5 mph N/A   Scattered Clouds
5:15 PM 87.6 °F 89.7 °F 65.5 °F 48% 29.70 in 10.0 mi South 20.7 mph 27.6 mph N/A   Scattered Clouds
5:35 PM 87.6 °F 89.7 °F 65.7 °F 48% 29.70 in 10.0 mi South 13.8 mph 24.2 mph N/A   Overcast
5:55 PM 87.1 °F 89.2 °F 65.8 °F 49% 29.71 in 10.0 mi South 18.4 mph 24.2 mph N/A   Mostly Cloudy
6:15 PM 86.5 °F 89.0 °F 66.4 °F 51% 29.71 in 10.0 mi South 11.5 mph - N/A   Scattered Clouds
6:35 PM 86.4 °F 88.7 °F 66.2 °F 51% 29.70 in 10.0 mi South 12.7 mph 19.6 mph N/A   Scattered Clouds
6:55 PM 84.4 °F 86.8 °F 66.4 °F 55% 29.70 in 10.0 mi South 11.5 mph - N/A   Scattered Clouds
7:15 PM 83.1 °F 85.4 °F 66.4 °F 57% 29.70 in 10.0 mi South 9.2 mph - N/A   Mostly Cloudy
7:35 PM 82.4 °F 84.6 °F 66.4 °F 58% 29.71 in 10.0 mi SSE 9.2 mph - N/A   Mostly Cloudy
7:55 PM 81.9 °F 84.1 °F 66.4 °F 59% 29.71 in 10.0 mi SSE 6.9 mph - N/A   Mostly Cloudy
8:15 PM 82.4 °F 84.6 °F 66.2 °F 58% 29.71 in 10.0 mi SSE 6.9 mph - N/A   Mostly Cloudy
8:35 PM 82.4 °F 84.4 °F 66.0 °F 57% 29.71 in 10.0 mi SSE 11.5 mph - N/A   Mostly Cloudy
8:55 PM 82.0 °F 83.9 °F 65.5 °F 57% 29.71 in 10.0 mi SSE 12.7 mph 18.4 mph N/A   Scattered Clouds
9:15 PM 81.7 °F 83.6 °F 65.7 °F 58% 29.72 in 10.0 mi SSE 13.8 mph 18.4 mph N/A   Scattered Clouds
9:35 PM 81.1 °F 83.2 °F 65.8 °F 60% 29.72 in 10.0 mi South 13.8 mph 19.6 mph N/A   Clear
9:55 PM 80.6 °F 82.7 °F 66.2 °F 61% 29.72 in 10.0 mi South 16.1 mph 19.6 mph N/A   Clear
10:15 PM 80.4 °F 82.6 °F 66.2 °F 62% 29.72 in 10.0 mi South 15.0 mph 21.9 mph N/A   Clear
10:35 PM 79.7 °F - 66.2 °F 63% 29.72 in 10.0 mi SSE 17.3 mph 23.0 mph N/A   Clear
10:55 PM 79.3 °F - 66.0 °F 64% 29.72 in 10.0 mi South 15.0 mph - N/A   Clear
11:15 PM 80.2 °F 82.1 °F 65.1 °F 60% 29.73 in 10.0 mi South 20.7 mph 29.9 mph N/A   Clear
11:35 PM 79.9 °F - 65.3 °F 61% 29.73 in 10.0 mi South 19.6 mph 26.5 mph N/A   Clear
11:55 PM 79.9 °F - 65.3 °F 61% 29.73 in 10.0 mi South 19.6 mph 27.6 mph N/A   Clear